TY-1
1 41844U 16066D   22013.80387230  .00004355  00000-0  16742-3 0  9999
2 41844  97.3963  26.9154 0015886 112.0258  62.0709 15.26829532287985
CAS-2T
1 41847U 16066G   22013.78181681  .00000218  00000-0  43885-4 0  9994
2 41847  98.5744  78.4814 0363895 312.4316  44.6615 14.38321995272113
EO-88
1 42017U 17008BX  22013.90376816  .00005290  00000-0  18421-3 0  9993
2 42017  97.2927  82.6610 0007227  83.1742 277.0321 15.30076123273415
CAS-4B
1 42759U 17034B   22013.72855190  .00001372  00000-0  94511-4 0  9994
2 42759  43.0164 104.6884 0007645  29.5483 105.2628 15.10713434252946
CAS-4A
1 42761U 17034D   22013.70655596  .00001435  00000-0  98047-4 0  9991
2 42761  43.0167 103.7108 0008042  31.1637  99.2087 15.10801179252948
NIUSat
1 42766U 17036B   22013.73226626  .00003123  00000-0  13209-3 0  9991
2 42766  97.2250  57.1990 0015496 148.4982 211.7187 15.23821732253229
Aalto 1
1 42775U 17036L   22013.78973520  .00002694  00000-0  11526-3 0  9990
2 42775  97.2212  57.3669 0014100 146.9584 213.2538 15.23564515253213
URSA MAIOR
1 42776U 17036M   22013.75011956  .00002841  00000-0  12011-3 0  9998
2 42776  97.2226  57.9280 0013862 146.1702 214.0423 15.23929669253231
Max Valier Sat
1 42778U 17036P   22013.66776176  .00002807  00000-0  11629-3 0  9998
2 42778  97.2296  60.1727 0012444 147.3575 212.8434 15.24647938253301
Pegasus
1 42784U 17036V   22013.67331905  .00003976  00000-0  15833-3 0  9992
2 42784  97.2243  60.7987 0011877 148.8131 211.3815 15.25736927253391
NUDATSat
1 42787U 17036Y   22013.95772738  .00005534  00000-0  20202-3 0  9997
2 42787  97.2277  64.2812 0011164 137.4095 222.8015 15.28465014253465
SUCHAI 1
1 42788U 17036Z   22013.80855103  .00004576  00000-0  17597-3 0  9998
2 42788  97.2250  62.2286 0011468 144.4400 215.7605 15.26829698253562
SKCUBE
1 42789U 17036AA  22013.68470437  .00004342  00000-0  16911-3 0  9998
2 42789  97.2246  61.7065 0011389 145.5503 214.6477 15.26435507253449
VZLUSAT 1
1 42790U 17036AB  22013.76071080  .00006202  00000-0  22650-3 0  9994
2 42790  97.2280  64.0722 0010690 139.1857 221.0185 15.28411470253588
VENTA 1
1 42791U 17036AC  22013.74593446  .00003898  00000-0  15302-3 0  9992
2 42791  97.2244  61.7392 0011022 145.7057 214.4896 15.26237466253440
Robusta 1B
1 42792U 17036AD  22013.68182407  .00004681  00000-0  18039-3 0  9998
2 42792  97.2248  62.1742 0010986 145.3217 214.8741 15.26750137253483
D-SAT
1 42794U 17036AF  22013.91877553  .00001071  00000-0  96833-4 0  9998
2 42794  97.4538  27.5582 0123362 242.0350 116.8340 14.91912795248438
TechnoSat
1 42829U 17042E   22013.92962084  .00000307  00000-0  35810-4 0  9998
2 42829  97.4392 236.9238 0014566 158.2008 201.9834 14.91470351245058
QIKCOM-1
1 42983U 98067NF  22013.87894724  .00021615  00000-0  15438-3 0  9992
2 42983  51.6333 265.8044 0003350  87.6970 272.4413 15.73708001240456
AO-91
1 43017U 17073E   22013.69281840  .00002488  00000-0  19482-3 0  9998
2 43017  97.6919 274.1869 0252358 334.3670  24.5205 14.80164841224212
PICSAT
1 43132U 18004X   22013.74054857  .00004961  00000-0  18719-3 0  9993
2 43132  97.3906  91.3491 0008606 176.3218 183.8086 15.27466414222767
AO-92
1 43137U 18004AC  22013.85235527  .00003475  00000-0  13579-3 0  9993
2 43137  97.3877  90.6384 0008319 178.3707 181.7560 15.26510076222743
TianYi 2
1 43155U 18008A   22013.86530586  .00001968  00000-0  11385-3 0  9999
2 43155  97.3769  77.2907 0015938 326.4595 121.7529 15.13305507219888
Zhou Enlai
1 43156U 18008B   22013.85714008  .00002416  00000-0  14036-3 0  9997
2 43156  97.3818  77.1304 0013185 327.5951 152.9690 15.12966041219817
TianYi 6
1 43158U 18008D   22013.75349101  .00002039  00000-0  12137-3 0  9997
2 43158  97.3759  75.2855 0012547 327.8496 150.5927 15.12263751219715
S-Net D
1 43186U 18014G   22013.75037767  .00001143  00000-0  10336-3 0  9991
2 43186  97.6685 282.4217 0012582  96.7085 263.5569 14.97321546215763
S-Net B
1 43187U 18014H   22013.68355653  .00001143  00000-0  10341-3 0  9997
2 43187  97.6682 282.3146 0012576  96.8383 263.4270 14.97320687215758
S-Net A
1 43188U 18014J   22013.68375941  .00001145  00000-0  10353-3 0  9995
2 43188  97.6686 282.3695 0012579  96.9140 263.3513 14.97319765215751
S-Net C
1 43189U 18014K   22013.68429914  .00001166  00000-0  10531-3 0  9997
2 43189  97.6682 282.3058 0012587  96.7650 263.5004 14.97319189214301
FMN 1
1 43192U 18015A   22013.85335920  .00009349  00000-0  31488-3 0  9999
2 43192  97.5124 156.0105 0012567 215.0642 248.5422 15.30908350219742
Shaonian Xing
1 43199U 18015H   22013.86569558  .00005993  00000-0  21180-3 0  9992
2 43199  97.4907 152.2892 0013868 226.0090 237.8008 15.29492000219785
SurfSat
1 43614U 18070B   22013.59215444  .00010569  00000-0  22012-3 0  9997
2 43614  93.0208  33.6515 0009777 265.1417  94.8724 15.45539090187080
CP-7 DAVE
1 43615U 18070C   22013.78700222  .00010235  00000-0  21636-3 0  9993
2 43615  93.0210  33.6535 0010006 264.8463  95.1653 15.45102193187096
ELFIN-B
1 43616U 18070D   22013.61101480  .00016067  00000-0  28405-3 0  9997
2 43616  93.0157  34.1379 0008843 256.0381 103.9896 15.50251502187268
ELFIN-A
1 43617U 18070E   22013.61420784  .00016506  00000-0  28346-3 0  9991
2 43617  93.0209  35.2175 0008143 250.7852 109.2528 15.51078272187296
CubeBel-1
1 43666U 18083E   22013.80524166  .00003430  00000-0  15975-3 0  9995
2 43666  97.4386  44.4366 0014888 148.3099 329.6513 15.20491856177964
Changshagaoxin
1 43669U 18083H   22013.83512016  .00002794  00000-0  13590-3 0  9995
2 43669  97.4309  40.9071 0011076 143.2983 324.4258 15.19184949177811
Ten-Koh
1 43677U 18084G   22013.90999569  .00000468  00000-0  53552-4 0  9994
2 43677  97.9427 142.8419 0017133  63.5008 296.7964 14.90660616174658
PO-101
1 43678U 18084H   22013.86508589  .00000651  00000-0  70147-4 0  9991
2 43678  97.9476 145.5951 0011423  77.7140 282.5363 14.91881681174805
IRVINE 01
1 43693U 18088D   22013.59773601  .00009465  00000-0  33594-3 0  9997
2 43693  85.0321  54.9755 0013599 336.0544  24.0067 15.28806044176509
QO-100
1 43700U 18090A   22013.50396931  .00000158  00000-0  00000-0 0  9990
2 43700   0.0225  37.4138 0002383 289.0984 353.6876  1.00273169 11477
Reaktor Hello World
1 43743U 18096AA  22013.79203161  .00004650  00000-0  16057-3 0  9999
2 43743  97.3693  94.6746 0014997 248.3395 111.6249 15.30344653174280
MinXSS-2
1 43758U 18099A   22013.76248042  .00000710  00000-0  67467-4 0  9997
2 43758  97.6456  85.3733 0016778  66.6213 293.6771 14.96458945169969
AO-95
1 43770U 18099N   22013.88280713  .00000979  00000-0  92942-4 0  9998
2 43770  97.6428  84.1828 0015933  75.6678 284.6311 14.95667246169900
RANGE-B
1 43772U 18099Q   22013.72902398  .00001376  00000-0  12731-3 0  9992
2 43772  97.6522  85.3834 0015112  64.5611 295.7172 14.96070957169894
RANGE-A
1 43773U 18099R   22013.70804286  .00000379  00000-0  39312-4 0  9995
2 43773  97.6352  83.1066 0014667  64.6442 295.6296 14.95466159169861
MOVE-II
1 43780U 18099Y   22013.74718420  .00001974  00000-0  17854-3 0  9999
2 43780  97.6457  84.8667 0014795  73.0117 287.2725 14.96480212169912
SNUSat 2
1 43782U 18099AA  22013.88304488  .00000991  00000-0  93533-4 0  9998
2 43782  97.6430  84.5970 0014036  63.2198 297.0457 14.95884294169926
SnugLite
1 43784U 18099AC  22013.73844256  .00001391  00000-0  12870-3 0  9995
2 43784  97.6392  84.1291 0016374  70.2786 290.0200 14.96033828169924
ITASat 1
1 43786U 18099AE  22013.76336959  .00000390  00000-0  39813-4 0  9991
2 43786  97.6451  84.8896 0016453  69.0711 291.2270 14.95915757169921
EAGLET 1
1 43790U 18099AJ  22013.81776002  .00000944  00000-0  88605-4 0  9997
2 43790  97.6444  85.4346 0014925  72.8289 287.4565 14.96223239169662
ESEO
1 43792U 18099AL  22013.77431836 -.00000072  00000-0 -13398-5 0  9999
2 43792  97.6399  84.7980 0014561  69.9699 290.3088 14.95884522169702
CSIM
1 43793U 18099AM  22013.78934537  .00001448  00000-0  13017-3 0  9999
2 43793  97.6446  85.6356 0013700  66.3330 293.9329 14.97140706169731
Astrocast 0.1
1 43798U 18099AS  22013.73020360  .00001612  00000-0  14640-3 0  9995
2 43798  97.6447  85.6499 0013204  54.4472 305.7979 14.96580334169961
JO-97
1 43803U 18099AX  22013.88900972  .00000811  00000-0  76717-4 0  9998
2 43803  97.6414  84.7492 0016443  68.4445 291.8527 14.96236221169954
Suomi 100
1 43804U 18099AY  22013.76589476  .00000432  00000-0  43338-4 0  9990
2 43804  97.6408  84.5753 0016396  68.6795 291.6175 14.96186604169948
Al Farabi 2
1 43805U 18099AZ  22013.79730326  .00001176  00000-0  10832-3 0  9994
2 43805  97.6418  84.9516 0016212  69.0200 291.2757 14.96502985169962
CHOMPTT
1 43855U 18104G   22013.44324257  .00003584  00000-0  14102-3 0  9999
2 43855  85.0373 154.2617 0018582  91.0713 269.2660 15.25091526171088
ISAT
1 43879U 18111D   22013.77416962  .00001495  00000-0  13456-3 0  9994
2 43879  97.6759 282.1997 0014405 113.3691 246.9048 14.97054685164511
UWE-4
1 43880U 18111E   22013.73025121  .00000773  00000-0  71660-4 0  9995
2 43880  97.6778 282.7602 0013116 116.5136 243.7432 14.97257866166543
Sparrow
1 43881U 18111F   22013.69196331  .00001741  00000-0  15469-3 0  9993
2 43881  97.6797 282.9003 0013935 113.5791 246.6896 14.97340608166548
Lume 1
1 43908U 18111AJ  22013.64859153  .00003736  00000-0  14089-3 0  9999
2 43908  97.2119 266.4664 0017847 265.6200  94.3001 15.27513608169749
FO-98
1 43933U 19003B   22013.70286248  .00040398  00000-0  10962-2 0  9994
2 43933  97.1608  53.1536 0012337  10.1426 350.0066 15.37421391166276
